Sacramento, CA

8:33 AM PST on December 06, 2016 (GMT -0800)
Sacramento International

Weather History for KSMF - November, 2013

Change the Weather History Date:

Monday, November 4, 2013

  Actual Average Record
Temperature  
Mean Temperature 58 °F -  
Max Temperature 69 °F 71 °F 84 °F (1976)
Min Temperature 48 °F 46 °F 33 °F (2003)
Degree Days  
Heating Degree Days 6    
Growing Degree Days 8 (Base 50)    
Moisture  
Dew Point 28 °F    
Average Humidity 34    
Maximum Humidity 46    
Minimum Humidity 18    
Precipitation  
Precipitation 0.00 in - - ()
Sea Level Pressure  
Sea Level Pressure 29.97 in    
Wind  
Wind Speed 18 mph (NNW)    
Max Wind Speed 28 mph    
Max Gust Speed 36 mph    
Visibility 10 miles    
Events      
Averages and records for this station are not official NWS values.
T = Trace of Precipitation, MM = Missing Value Source: NWS Daily Summary

Daily Weather History Graph

Daily Weather History Graph

Search for Another Location

Airport or City:

Trip Planner

Search our weather history database for the weather conditions in past years. The results will help you decide how hot, cold, wet, or windy it might be!

Date:

Astronomy

Nov. 04, 2013 Rise Set
Actual Time 6:36 AM PST 5:02 PM PST
Civil Twilight 6:09 AM PST 5:30 PM PST
Nautical Twilight 5:37 AM PST 6:01 PM PST
Astronomical Twilight 5:06 AM PST 6:32 PM PST
Moon 7:52 AM PST (11/4) 6:12 PM PST (11/4)
Length of Visible Light 11h 21m
Length of Day
10h 25m
New Moon, 2% of the Moon is Illuminated
Nov 4
New Moon
Nov 9
First Quarter
Nov 17
Full
Nov 25
Last Quarter
Dec 2
New

Hourly Weather History & Observations

Time (PST) Temp. Dew Point Humidity Pressure Visibility Wind Dir Wind Speed Gust Speed Precip Events Conditions
12:53 AM 52.0 °F 28.9 °F 41% 29.90 in 10.0 mi NNW 15.0 mph - N/A   Clear
1:53 AM 48.9 °F 28.9 °F 46% 29.90 in 10.0 mi NNW 11.5 mph - N/A   Clear
2:53 AM 50.0 °F 28.9 °F 44% 29.89 in 10.0 mi NNW 17.3 mph - N/A   Clear
3:53 AM 50.0 °F 28.9 °F 44% 29.89 in 10.0 mi NNW 13.8 mph - N/A   Clear
4:53 AM 48.9 °F 28.9 °F 46% 29.91 in 10.0 mi NNW 15.0 mph - N/A   Clear
5:53 AM 50.0 °F 28.0 °F 43% 29.93 in 10.0 mi NNW 17.3 mph - N/A   Clear
6:53 AM 50.0 °F 28.9 °F 44% 29.95 in 10.0 mi North 16.1 mph - N/A   Clear
7:53 AM 53.1 °F 28.9 °F 40% 29.97 in 10.0 mi NNW 17.3 mph - N/A   Clear
8:53 AM 57.0 °F 28.0 °F 33% 29.99 in 10.0 mi NNW 20.7 mph 29.9 mph N/A   Clear
9:53 AM 61.0 °F 28.0 °F 29% 30.00 in 10.0 mi NNW 20.7 mph 27.6 mph N/A   Clear
10:53 AM 64.0 °F 28.0 °F 26% 29.99 in 10.0 mi NNW 25.3 mph 29.9 mph N/A   Clear
11:53 AM 66.9 °F 27.0 °F 22% 29.97 in 10.0 mi NNW 24.2 mph 32.2 mph N/A   Clear
12:53 PM 68.0 °F 25.0 °F 20% 29.95 in 10.0 mi NNW 27.6 mph 34.5 mph N/A   Clear
1:53 PM 69.1 °F 25.0 °F 19% 29.96 in 10.0 mi NNW 21.9 mph 33.4 mph N/A   Clear
2:53 PM 69.1 °F 24.1 °F 18% 29.94 in 10.0 mi NNW 26.5 mph 35.7 mph N/A   Clear
3:53 PM 68.0 °F 25.0 °F 20% 29.94 in 10.0 mi NNW 24.2 mph 34.5 mph N/A   Clear
4:53 PM 64.9 °F 27.0 °F 24% 29.96 in 10.0 mi NNW 21.9 mph 29.9 mph N/A   Partly Cloudy
5:53 PM 63.0 °F 28.9 °F 28% 29.98 in 10.0 mi NNW 19.6 mph 27.6 mph N/A   Clear
6:53 PM 60.1 °F 28.9 °F 31% 30.00 in 10.0 mi NNW 15.0 mph - N/A   Clear
7:53 PM 60.1 °F 30.0 °F 32% 30.01 in 10.0 mi NNW 16.1 mph 25.3 mph N/A   Clear
8:53 PM 57.9 °F 30.0 °F 35% 30.03 in 10.0 mi NW 19.6 mph - N/A   Clear
9:53 PM 54.0 °F 30.0 °F 40% 30.04 in 10.0 mi NNW 15.0 mph - N/A   Clear
10:53 PM 53.1 °F 30.0 °F 41% 30.05 in 10.0 mi NNW 13.8 mph - N/A   Clear
11:53 PM 53.1 °F 30.0 °F 41% 30.06 in 10.0 mi NNW 17.3 mph - N/A   Clear